Location: Poughquag
(41.6090°N, 73.6820°W)
Time: 07:56:12
(UTC-05:00)

STRAND 1 - Pass Details

Date: 05 December 2023
Orbit: 766 x 778 km, 98.4° (Epoch: 24 February)

Event Time Altitude Azimuth Distance (km) Brightness Sun altitude
Rises 05:49:26 0° 173° (S) 3,233 ? -13.9°
Reaches altitude 10° 05:51:46 10° 176° (S) 2,308 ? -13.5°
Maximum altitude 05:56:49 65° 258° (WSW) 846 ? -12.6°
Drops below altitude 10° 06:01:53 10° 341° (NNW) 2,317 ? -11.7°
Sets 06:04:14 0° 344° (NNW) 3,247 ? -11.3°
